Time,TemperatureF,DewpointF,PressureIn,WindDirection,WindDirectionDegrees,WindSpeedMPH,WindSpeedGustMPH,Humidity,HourlyPrecipIn,Conditions,Clouds,dailyrainin,SolarRadiationWatts/m^2,SoftwareType,DateUTC
2013-08-31 00:01:00,74.8,72.7,29.90,NE,40,0.0,1.0,93,0.00,,,0.00,0.0,meteohub,2013-08-31 04:01:00,
2013-08-31 00:02:00,74.8,72.7,29.90,NE,40,0.0,1.0,93,0.00,,,0.00,0.0,meteohub,2013-08-31 04:02:00,
2013-08-31 00:07:00,74.8,72.7,29.90,NE,40,0.0,1.0,93,0.00,,,0.00,0.0,meteohub,2013-08-31 04:07:00,
2013-08-31 00:12:00,74.8,72.7,29.90,NE,40,0.0,1.0,93,0.00,,,0.00,0.0,meteohub,2013-08-31 04:12:00,
2013-08-31 00:17:00,75.0,72.9,29.89,NE,40,0.0,0.0,93,0.00,,,0.00,0.0,meteohub,2013-08-31 04:17:00,
2013-08-31 00:22:00,75.0,72.9,29.89,NE,40,0.0,1.0,93,0.00,,,0.00,0.0,meteohub,2013-08-31 04:22:00,
2013-08-31 00:27:00,74.8,72.7,29.89,NE,40,0.0,1.0,93,0.00,,,0.00,0.0,meteohub,2013-08-31 04:27:00,
2013-08-31 00:32:00,74.8,72.7,29.89,NE,40,0.0,1.0,93,0.00,,,0.00,0.0,meteohub,2013-08-31 04:32:00,
2013-08-31 00:37:00,74.8,72.3,29.89,NE,40,0.0,1.0,92,0.00,,,0.00,0.0,meteohub,2013-08-31 04:37:00,
2013-08-31 00:42:00,74.7,72.5,29.89,NE,40,0.0,1.0,93,0.00,,,0.00,0.0,meteohub,2013-08-31 04:42:00,
2013-08-31 00:47:00,74.7,72.5,29.88,NE,40,0.0,1.0,93,0.00,,,0.00,0.0,meteohub,2013-08-31 04:47:00,
2013-08-31 00:53:00,74.7,72.5,29.89,NE,40,0.0,1.0,93,0.00,,,0.00,0.0,meteohub,2013-08-31 04:53:00,
2013-08-31 00:58:00,74.5,72.3,29.89,NE,40,0.0,1.0,93,0.00,,,0.00,0.0,meteohub,2013-08-31 04:58:00,
2013-08-31 01:03:00,74.5,72.3,29.89,NE,40,0.0,0.0,93,0.00,,,0.00,0.0,meteohub,2013-08-31 05:03:00,
2013-08-31 01:08:00,74.1,72.0,29.89,NE,40,0.0,0.0,93,0.00,,,0.00,0.0,meteohub,2013-08-31 05:08:00,
2013-08-31 01:13:00,74.1,72.3,29.88,NE,40,0.0,0.0,94,0.00,,,0.00,0.0,meteohub,2013-08-31 05:13:00,
2013-08-31 01:18:00,74.1,72.3,29.88,NE,40,0.0,0.0,94,0.00,,,0.00,0.0,meteohub,2013-08-31 05:18:00,
2013-08-31 01:23:00,73.9,72.1,29.88,NE,40,0.0,0.0,94,0.00,,,0.00,0.0,meteohub,2013-08-31 05:23:00,
2013-08-31 01:28:00,73.9,72.1,29.88,NE,40,0.0,0.0,94,0.00,,,0.00,0.0,meteohub,2013-08-31 05:28:00,
2013-08-31 01:33:00,73.8,72.0,29.88,NE,40,0.0,0.0,94,0.00,,,0.00,0.0,meteohub,2013-08-31 05:33:00,
2013-08-31 01:38:00,73.8,72.3,29.88,NE,40,0.0,0.0,95,0.00,,,0.00,0.0,meteohub,2013-08-31 05:38:00,
2013-08-31 01:43:00,73.6,72.1,29.87,NE,40,0.0,0.0,95,0.00,,,0.00,0.0,meteohub,2013-08-31 05:43:00,
2013-08-31 01:48:00,73.6,72.1,29.87,NE,40,0.0,0.0,95,0.00,,,0.00,0.0,meteohub,2013-08-31 05:48:00,
2013-08-31 01:53:00,73.6,72.1,29.87,NE,40,0.0,0.0,95,0.00,,,0.00,0.0,meteohub,2013-08-31 05:53:00,
2013-08-31 01:58:00,73.2,71.8,29.87,NE,40,0.0,0.0,95,0.00,,,0.00,0.0,meteohub,2013-08-31 05:58:00,
2013-08-31 02:03:00,73.0,71.6,29.87,NE,40,0.0,0.0,95,0.00,,,0.00,0.0,meteohub,2013-08-31 06:03:00,
2013-08-31 02:08:00,73.0,71.6,29.87,NE,40,0.0,0.0,95,0.00,,,0.00,0.0,meteohub,2013-08-31 06:08:00,
2013-08-31 02:13:00,72.9,71.4,29.87,NE,40,0.0,0.0,95,0.00,,,0.00,0.0,meteohub,2013-08-31 06:13:00,
2013-08-31 02:18:00,72.7,71.2,29.87,NE,40,0.0,0.0,95,0.00,,,0.00,0.0,meteohub,2013-08-31 06:18:00,
2013-08-31 02:23:00,72.7,71.2,29.87,NE,40,0.0,0.0,95,0.00,,,0.00,0.0,meteohub,2013-08-31 06:23:00,
2013-08-31 02:28:00,72.7,71.2,29.87,NE,40,0.0,1.0,95,0.00,,,0.00,0.0,meteohub,2013-08-31 06:28:00,
2013-08-31 02:33:00,72.5,71.2,29.87,NE,40,0.0,1.0,96,0.00,,,0.00,0.0,meteohub,2013-08-31 06:33:00,
2013-08-31 02:38:00,72.3,71.1,29.87,NE,40,0.0,1.0,96,0.00,,,0.00,0.0,meteohub,2013-08-31 06:38:00,
2013-08-31 02:43:00,72.1,70.9,29.87,NE,40,0.0,0.0,96,0.00,,,0.00,0.0,meteohub,2013-08-31 06:43:00,
2013-08-31 02:48:00,72.1,70.9,29.87,NE,40,0.0,0.0,96,0.00,,,0.00,0.0,meteohub,2013-08-31 06:48:00,
2013-08-31 02:53:00,72.3,71.1,29.86,NE,40,0.0,0.0,96,0.00,,,0.00,0.0,meteohub,2013-08-31 06:53:00,
2013-08-31 02:58:00,72.3,71.1,29.86,NE,40,0.0,0.0,96,0.00,,,0.00,0.0,meteohub,2013-08-31 06:58:00,
2013-08-31 03:03:00,72.1,70.9,29.86,NE,40,0.0,0.0,96,0.00,,,0.00,0.0,meteohub,2013-08-31 07:03:00,
2013-08-31 03:08:00,72.1,70.9,29.86,NE,40,0.0,0.0,96,0.00,,,0.00,0.0,meteohub,2013-08-31 07:08:00,
2013-08-31 03:13:00,72.1,70.9,29.86,NE,40,0.0,0.0,96,0.00,,,0.00,0.0,meteohub,2013-08-31 07:13:00,
2013-08-31 03:18:00,72.1,70.9,29.86,NE,40,0.0,0.0,96,0.00,,,0.00,0.0,meteohub,2013-08-31 07:18:00,
2013-08-31 03:23:00,72.0,70.7,29.86,NE,40,0.0,0.0,96,0.00,,,0.00,0.0,meteohub,2013-08-31 07:23:00,
2013-08-31 03:28:00,72.0,70.7,29.86,NE,40,0.0,0.0,96,0.00,,,0.00,0.0,meteohub,2013-08-31 07:28:00,
2013-08-31 03:33:00,72.1,71.2,29.86,NE,40,0.0,0.0,97,0.00,,,0.00,0.0,meteohub,2013-08-31 07:33:00,
2013-08-31 03:38:00,72.3,71.4,29.86,NE,40,0.0,0.0,97,0.00,,,0.00,0.0,meteohub,2013-08-31 07:38:00,
2013-08-31 03:44:00,72.3,71.4,29.86,NE,40,0.0,0.0,97,0.00,,,0.00,0.0,meteohub,2013-08-31 07:44:00,
2013-08-31 03:49:00,72.3,71.4,29.86,NE,40,0.0,0.0,97,0.00,,,0.00,0.0,meteohub,2013-08-31 07:49:00,
2013-08-31 03:54:00,72.3,71.4,29.86,NE,40,0.0,0.0,97,0.00,,,0.00,0.0,meteohub,2013-08-31 07:54:00,
2013-08-31 03:59:00,72.3,71.4,29.86,NE,40,0.0,0.0,97,0.00,,,0.00,0.0,meteohub,2013-08-31 07:59:00,
2013-08-31 04:04:00,72.3,71.4,29.86,NE,40,0.0,0.0,97,0.00,,,0.00,0.0,meteohub,2013-08-31 08:04:00,
2013-08-31 04:09:00,72.3,71.4,29.86,NE,40,0.0,0.0,97,0.00,,,0.00,0.0,meteohub,2013-08-31 08:09:00,
2013-08-31 04:14:00,72.3,71.4,29.85,NE,40,0.0,0.0,97,0.00,,,0.00,0.0,meteohub,2013-08-31 08:14:00,
2013-08-31 04:19:00,72.3,71.4,29.85,NE,40,0.0,0.0,97,0.00,,,0.00,0.0,meteohub,2013-08-31 08:19:00,
2013-08-31 04:24:00,72.5,71.6,29.85,NE,40,0.0,0.0,97,0.00,,,0.00,0.0,meteohub,2013-08-31 08:24:00,
2013-08-31 04:29:00,72.5,71.6,29.86,NE,40,0.0,0.0,97,0.00,,,0.00,0.0,meteohub,2013-08-31 08:29:00,
2013-08-31 04:34:00,72.5,71.6,29.86,NE,40,0.0,0.0,97,0.00,,,0.00,0.0,meteohub,2013-08-31 08:34:00,
2013-08-31 04:39:00,72.3,71.4,29.86,NE,40,0.0,0.0,97,0.00,,,0.00,0.0,meteohub,2013-08-31 08:39:00,
2013-08-31 04:44:00,72.3,71.4,29.86,NE,40,0.0,0.0,97,0.00,,,0.00,0.0,meteohub,2013-08-31 08:44:00,
2013-08-31 04:49:00,72.3,71.4,29.86,NE,40,0.0,0.0,97,0.00,,,0.00,0.0,meteohub,2013-08-31 08:49:00,
2013-08-31 04:54:00,72.3,71.4,29.86,NE,40,0.0,0.0,97,0.00,,,0.00,0.0,meteohub,2013-08-31 08:54:00,
2013-08-31 04:59:00,72.3,71.4,29.86,NE,40,0.0,0.0,97,0.00,,,0.00,0.0,meteohub,2013-08-31 08:59:00,
2013-08-31 05:04:00,72.3,71.4,29.86,NE,40,0.0,0.0,97,0.00,,,0.00,0.0,meteohub,2013-08-31 09:04:00,
2013-08-31 05:09:00,72.1,71.2,29.86,NE,40,0.0,0.0,97,0.00,,,0.00,0.0,meteohub,2013-08-31 09:09:00,
2013-08-31 05:14:00,72.1,71.2,29.86,NE,40,0.0,0.0,97,0.00,,,0.00,0.0,meteohub,2013-08-31 09:14:00,
2013-08-31 05:19:00,72.1,71.2,29.86,NE,40,0.0,0.0,97,0.00,,,0.00,0.0,meteohub,2013-08-31 09:19:00,
2013-08-31 05:24:00,72.1,71.2,29.86,NE,40,0.0,0.0,97,0.00,,,0.00,0.0,meteohub,2013-08-31 09:24:00,
2013-08-31 05:29:00,72.1,71.2,29.86,NE,40,0.0,0.0,97,0.00,,,0.00,0.0,meteohub,2013-08-31 09:29:00,
2013-08-31 05:34:00,72.1,71.2,29.86,NE,40,0.0,0.0,97,0.00,,,0.00,0.0,meteohub,2013-08-31 09:34:00,
2013-08-31 05:39:00,72.1,71.2,29.86,NE,40,0.0,0.0,97,0.00,,,0.00,0.0,meteohub,2013-08-31 09:39:00,
2013-08-31 05:44:00,72.0,71.1,29.86,NE,40,0.0,0.0,97,0.00,,,0.00,0.0,meteohub,2013-08-31 09:44:00,
2013-08-31 05:49:00,72.1,71.2,29.86,NE,40,0.0,0.0,97,0.00,,,0.00,0.0,meteohub,2013-08-31 09:49:00,
2013-08-31 05:54:00,72.1,71.2,29.86,NE,40,0.0,0.0,97,0.00,,,0.00,0.0,meteohub,2013-08-31 09:54:00,
2013-08-31 05:59:00,72.3,71.4,29.86,NE,40,0.0,0.0,97,0.00,,,0.00,0.0,meteohub,2013-08-31 09:59:00,
2013-08-31 06:04:00,72.1,71.2,29.87,NE,40,0.0,0.0,97,0.00,,,0.00,0.0,meteohub,2013-08-31 10:04:00,
2013-08-31 06:09:00,72.1,71.2,29.87,NE,40,0.0,0.0,97,0.00,,,0.00,0.0,meteohub,2013-08-31 10:09:00,
2013-08-31 06:14:00,72.3,71.4,29.87,NE,40,0.0,0.0,97,0.00,,,0.00,0.0,meteohub,2013-08-31 10:14:00,
2013-08-31 06:19:00,72.1,71.2,29.87,NE,40,0.0,0.0,97,0.00,,,0.00,0.0,meteohub,2013-08-31 10:19:00,
2013-08-31 06:24:00,72.1,71.2,29.88,NE,40,0.0,0.0,97,0.00,,,0.00,0.0,meteohub,2013-08-31 10:24:00,
2013-08-31 06:29:00,72.3,71.4,29.88,NE,40,0.0,0.0,97,0.00,,,0.00,0.0,meteohub,2013-08-31 10:29:00,
2013-08-31 06:34:00,72.3,71.8,29.88,NE,40,0.0,0.0,98,0.00,,,0.00,0.0,meteohub,2013-08-31 10:34:00,
2013-08-31 06:39:00,72.3,71.8,29.88,NE,40,0.0,0.0,98,0.00,,,0.00,0.0,meteohub,2013-08-31 10:39:00,
2013-08-31 06:44:00,72.9,72.3,29.88,NE,40,0.0,0.0,98,0.00,,,0.00,0.0,meteohub,2013-08-31 10:44:00,
2013-08-31 06:49:00,72.9,72.3,29.88,NE,40,0.0,0.0,98,0.00,,,0.00,0.0,meteohub,2013-08-31 10:49:00,
2013-08-31 06:54:00,72.7,72.1,29.88,NE,40,0.0,0.0,98,0.00,,,0.00,0.0,meteohub,2013-08-31 10:54:00,
2013-08-31 06:59:00,72.7,72.1,29.89,NE,40,0.0,0.0,98,0.00,,,0.00,0.0,meteohub,2013-08-31 10:59:00,
2013-08-31 07:04:00,72.9,72.3,29.89,NE,40,0.0,0.0,98,0.00,,,0.00,5.0,meteohub,2013-08-31 11:04:00,
2013-08-31 07:09:00,72.9,72.3,29.89,NE,40,0.0,0.0,98,0.00,,,0.00,9.0,meteohub,2013-08-31 11:09:00,
2013-08-31 07:14:00,72.7,72.1,29.89,NE,40,0.0,0.0,98,0.00,,,0.00,14.0,meteohub,2013-08-31 11:14:00,
2013-08-31 07:20:00,72.7,72.1,29.89,NE,40,0.0,0.0,98,0.00,,,0.00,19.0,meteohub,2013-08-31 11:20:00,
2013-08-31 07:25:00,72.7,72.1,29.89,NE,40,0.0,0.0,98,0.00,,,0.00,25.0,meteohub,2013-08-31 11:25:00,
2013-08-31 07:30:00,72.7,72.1,29.89,NE,40,0.0,0.0,98,0.00,,,0.00,32.0,meteohub,2013-08-31 11:30:00,
2013-08-31 07:35:00,72.9,72.3,29.90,NE,40,0.0,0.0,98,0.00,,,0.00,39.0,meteohub,2013-08-31 11:35:00,
2013-08-31 07:40:00,72.9,72.3,29.90,NE,40,0.0,0.0,98,0.00,,,0.00,54.0,meteohub,2013-08-31 11:40:00,
2013-08-31 07:45:00,72.9,72.3,29.90,NE,40,0.0,0.0,98,0.00,,,0.00,58.0,meteohub,2013-08-31 11:45:00,
2013-08-31 07:50:00,73.0,72.5,29.90,NE,40,0.0,0.0,98,0.00,,,0.00,74.0,meteohub,2013-08-31 11:50:00,
2013-08-31 07:55:00,73.2,72.7,29.90,NE,40,0.0,0.0,98,0.00,,,0.00,90.0,meteohub,2013-08-31 11:55:00,
2013-08-31 08:00:00,73.8,73.2,29.90,NE,40,0.0,0.0,98,0.00,,,0.00,105.0,meteohub,2013-08-31 12:00:00,
2013-08-31 08:05:00,74.1,73.6,29.90,NE,40,0.0,0.0,98,0.00,,,0.00,120.0,meteohub,2013-08-31 12:05:00,
2013-08-31 08:10:00,74.7,74.1,29.91,NE,40,0.0,0.0,98,0.00,,,0.00,132.0,meteohub,2013-08-31 12:10:00,
2013-08-31 08:15:00,74.8,74.3,29.91,NE,40,0.0,0.0,98,0.00,,,0.00,142.0,meteohub,2013-08-31 12:15:00,
2013-08-31 08:20:00,75.6,75.0,29.91,NE,40,0.0,0.0,98,0.00,,,0.00,158.0,meteohub,2013-08-31 12:20:00,
2013-08-31 08:25:00,76.1,75.6,29.91,NNE,30,0.0,0.0,98,0.00,,,0.00,174.0,meteohub,2013-08-31 12:25:00,
2013-08-31 08:30:00,76.5,75.9,29.91,NNE,30,0.0,0.0,98,0.00,,,0.00,188.0,meteohub,2013-08-31 12:30:00,
2013-08-31 08:35:00,77.2,76.6,29.91,NNE,30,0.0,0.0,98,0.00,,,0.00,202.0,meteohub,2013-08-31 12:35:00,
2013-08-31 08:40:00,77.7,77.2,29.91,NNE,30,0.0,0.0,98,0.00,,,0.00,234.0,meteohub,2013-08-31 12:40:00,
2013-08-31 08:45:00,78.6,78.1,29.91,NNE,30,0.0,0.0,98,0.00,,,0.00,313.0,meteohub,2013-08-31 12:45:00,
2013-08-31 08:50:00,79.0,78.4,29.91,NNE,30,0.0,0.0,98,0.00,,,0.00,171.0,meteohub,2013-08-31 12:50:00,
2013-08-31 08:55:00,79.7,78.8,29.91,NNE,30,0.0,0.0,97,0.00,,,0.00,288.0,meteohub,2013-08-31 12:55:00,
2013-08-31 09:00:00,80.4,79.5,29.91,NNE,30,0.0,1.0,97,0.00,,,0.00,308.0,meteohub,2013-08-31 13:00:00,
2013-08-31 09:05:00,81.3,79.7,29.91,NNE,30,0.0,1.0,95,0.00,,,0.00,336.0,meteohub,2013-08-31 13:05:00,
2013-08-31 09:10:00,82.0,80.1,29.91,North,0,0.0,1.0,94,0.00,,,0.00,287.0,meteohub,2013-08-31 13:10:00,
2013-08-31 09:15:00,82.9,80.1,29.92,ENE,63,0.0,1.0,91,0.00,,,0.00,199.0,meteohub,2013-08-31 13:15:00,
2013-08-31 09:20:00,83.5,80.6,29.92,ENE,63,0.0,2.0,91,0.00,,,0.00,295.0,meteohub,2013-08-31 13:20:00,
2013-08-31 09:25:00,83.7,80.1,29.92,ENE,75,0.0,3.0,89,0.00,,,0.00,482.0,meteohub,2013-08-31 13:25:00,
2013-08-31 09:31:00,83.5,79.5,29.92,ESE,121,0.0,5.0,88,0.00,,,0.00,427.0,meteohub,2013-08-31 13:31:00,
2013-08-31 09:36:00,83.7,79.7,29.93,NE,46,2.0,5.0,88,0.00,,,0.00,464.0,meteohub,2013-08-31 13:36:00,
2013-08-31 09:41:00,83.5,79.2,29.92,NE,46,4.0,7.0,87,0.00,,,0.00,346.0,meteohub,2013-08-31 13:41:00,
2013-08-31 09:46:00,83.1,78.8,29.92,SSE,160,0.0,7.0,87,0.00,,,0.00,155.0,meteohub,2013-08-31 13:46:00,
2013-08-31 09:51:00,83.3,79.0,29.92,SE,144,0.0,7.0,87,0.00,,,0.00,169.0,meteohub,2013-08-31 13:51:00,
2013-08-31 09:56:00,83.5,79.2,29.92,ESE,103,0.0,5.0,87,0.00,,,0.00,601.0,meteohub,2013-08-31 13:56:00,
2013-08-31 10:01:00,84.2,79.5,29.93,ESE,109,0.0,2.0,86,0.00,,,0.00,529.0,meteohub,2013-08-31 14:01:00,
2013-08-31 10:06:00,84.7,79.7,29.93,ENE,70,1.0,2.0,85,0.00,,,0.00,580.0,meteohub,2013-08-31 14:06:00,
2013-08-31 10:11:00,85.3,79.5,29.92,NE,45,0.0,4.0,83,0.00,,,0.00,570.0,meteohub,2013-08-31 14:11:00,
2013-08-31 10:16:00,85.3,79.2,29.92,East,96,0.0,4.0,82,0.00,,,0.00,578.0,meteohub,2013-08-31 14:16:00,
2013-08-31 10:21:00,85.3,79.9,29.92,East,97,0.0,4.0,84,0.00,,,0.00,244.0,meteohub,2013-08-31 14:21:00,
2013-08-31 10:26:00,85.1,79.3,29.92,South,173,0.0,4.0,83,0.00,,,0.00,241.0,meteohub,2013-08-31 14:26:00,
2013-08-31 10:31:00,85.1,79.3,29.92,East,97,0.0,4.0,83,0.00,,,0.00,712.0,meteohub,2013-08-31 14:31:00,
2013-08-31 10:36:00,84.9,79.2,29.93,ENE,63,0.0,7.0,83,0.00,,,0.00,388.0,meteohub,2013-08-31 14:36:00,
2013-08-31 10:41:00,84.9,79.2,29.93,ENE,64,0.0,7.0,83,0.00,,,0.00,299.0,meteohub,2013-08-31 14:41:00,
2013-08-31 10:46:00,85.5,80.1,29.93,ENE,64,0.0,7.0,84,0.00,,,0.00,710.0,meteohub,2013-08-31 14:46:00,
2013-08-31 10:51:00,86.0,79.5,29.93,NE,40,3.0,5.0,81,0.00,,,0.00,594.0,meteohub,2013-08-31 14:51:00,
2013-08-31 10:56:00,85.5,79.0,29.93,East,92,0.0,7.0,81,0.00,,,0.00,250.0,meteohub,2013-08-31 14:56:00,
2013-08-31 11:01:00,85.1,79.0,29.93,NE,40,0.0,7.0,82,0.00,,,0.00,302.0,meteohub,2013-08-31 15:01:00,
2013-08-31 11:06:00,85.1,79.0,29.93,SSE,155,0.0,7.0,82,0.00,,,0.00,334.0,meteohub,2013-08-31 15:06:00,
2013-08-31 11:11:00,85.6,79.2,29.93,East,92,1.0,4.0,81,0.00,,,0.00,735.0,meteohub,2013-08-31 15:11:00,
2013-08-31 11:16:00,86.4,79.5,29.93,ESE,113,0.0,7.0,80,0.00,,,0.00,747.0,meteohub,2013-08-31 15:16:00,
2013-08-31 11:21:00,86.5,79.2,29.92,ENE,69,1.0,7.0,79,0.00,,,0.00,315.0,meteohub,2013-08-31 15:21:00,
2013-08-31 11:26:00,86.7,79.9,29.92,East,80,0.0,5.0,80,0.00,,,0.00,817.0,meteohub,2013-08-31 15:26:00,
2013-08-31 11:32:00,87.1,79.3,29.92,SE,130,0.0,5.0,78,0.00,,,0.00,826.0,meteohub,2013-08-31 15:32:00,
2013-08-31 11:37:00,87.1,79.0,29.92,ESE,119,1.0,6.0,77,0.00,,,0.00,315.0,meteohub,2013-08-31 15:37:00,
2013-08-31 11:42:00,86.7,79.3,29.92,SE,138,1.0,6.0,79,0.00,,,0.00,988.0,meteohub,2013-08-31 15:42:00,
2013-08-31 11:47:00,86.9,80.1,29.92,East,98,0.0,6.0,80,0.00,,,0.00,770.0,meteohub,2013-08-31 15:47:00,
2013-08-31 11:52:00,87.3,79.2,29.92,SSE,155,3.0,5.0,77,0.00,,,0.00,346.0,meteohub,2013-08-31 15:52:00,
2013-08-31 11:57:00,87.1,79.3,29.92,East,100,1.0,8.0,78,0.00,,,0.00,912.0,meteohub,2013-08-31 15:57:00,
2013-08-31 12:02:00,87.4,80.1,29.92,ENE,69,3.0,8.0,79,0.00,,,0.00,969.0,meteohub,2013-08-31 16:02:00,
2013-08-31 12:07:00,87.4,79.0,29.92,SE,132,3.0,8.0,76,0.00,,,0.00,942.0,meteohub,2013-08-31 16:07:00,
2013-08-31 12:12:00,87.3,79.5,29.91,ESE,104,1.0,9.0,78,0.00,,,0.00,974.0,meteohub,2013-08-31 16:12:00,
2013-08-31 12:17:00,87.3,79.9,29.91,SE,126,0.0,9.0,79,0.00,,,0.00,831.0,meteohub,2013-08-31 16:17:00,
2013-08-31 12:22:00,88.0,80.2,29.91,ESE,114,0.0,9.0,78,0.00,,,0.00,988.0,meteohub,2013-08-31 16:22:00,
2013-08-31 12:27:00,88.2,79.7,29.91,NE,42,0.0,9.0,76,0.00,,,0.00,965.0,meteohub,2013-08-31 16:27:00,
2013-08-31 12:32:00,88.2,79.2,29.91,SSE,165,3.0,7.0,75,0.00,,,0.00,870.0,meteohub,2013-08-31 16:32:00,
2013-08-31 12:37:00,88.3,79.3,29.91,ESE,117,1.0,7.0,75,0.00,,,0.00,868.0,meteohub,2013-08-31 16:37:00,
2013-08-31 12:42:00,88.0,79.0,29.91,East,84,0.0,8.0,75,0.00,,,0.00,343.0,meteohub,2013-08-31 16:42:00,
2013-08-31 12:47:00,87.6,79.5,29.91,SE,134,1.0,8.0,77,0.00,,,0.00,970.0,meteohub,2013-08-31 16:47:00,
2013-08-31 12:52:00,87.4,79.3,29.91,SW,220,4.0,8.0,77,0.00,,,0.00,1030.0,meteohub,2013-08-31 16:52:00,
2013-08-31 12:57:00,88.0,79.5,29.91,SE,142,1.0,6.0,76,0.00,,,0.00,364.0,meteohub,2013-08-31 16:57:00,
2013-08-31 13:02:00,88.2,78.8,29.91,ESE,106,0.0,6.0,74,0.00,,,0.00,329.0,meteohub,2013-08-31 17:02:00,
2013-08-31 13:07:00,88.0,79.0,29.91,SE,140,2.0,5.0,75,0.00,,,0.00,969.0,meteohub,2013-08-31 17:07:00,
2013-08-31 13:12:00,87.4,79.0,29.91,ENE,73,4.0,6.0,76,0.00,,,0.00,947.0,meteohub,2013-08-31 17:12:00,
2013-08-31 13:17:00,87.6,79.2,29.90,SSE,159,1.0,9.0,76,0.00,,,0.00,954.0,meteohub,2013-08-31 17:17:00,
2013-08-31 13:22:00,88.2,79.2,29.90,NNE,26,1.0,9.0,75,0.00,,,0.00,882.0,meteohub,2013-08-31 17:22:00,
2013-08-31 13:27:00,88.2,80.1,29.91,SSW,196,4.0,7.0,77,0.00,,,0.00,974.0,meteohub,2013-08-31 17:27:00,
2013-08-31 13:32:00,88.7,79.7,29.90,SSE,164,1.0,5.0,75,0.00,,,0.00,1007.0,meteohub,2013-08-31 17:32:00,
2013-08-31 13:37:00,89.1,78.4,29.90,SSE,152,0.0,7.0,71,0.00,,,0.00,1011.0,meteohub,2013-08-31 17:37:00,
2013-08-31 13:42:00,88.7,78.1,29.91,SSE,159,0.0,7.0,71,0.00,,,0.00,285.0,meteohub,2013-08-31 17:42:00,
2013-08-31 13:47:00,86.9,74.1,29.91,WNW,296,2.0,7.0,66,0.00,,,0.00,346.0,meteohub,2013-08-31 17:47:00,
2013-08-31 13:52:00,84.9,74.8,29.90,WNW,286,2.0,9.0,72,0.00,,,0.00,425.0,meteohub,2013-08-31 17:52:00,
2013-08-31 13:57:00,84.4,75.2,29.90,WSW,249,0.0,9.0,74,0.00,,,0.00,243.0,meteohub,2013-08-31 17:57:00,
2013-08-31 14:02:00,84.4,75.2,29.90,SW,219,0.0,9.0,74,0.00,,,0.00,236.0,meteohub,2013-08-31 18:02:00,
2013-08-31 14:07:00,84.4,75.2,29.90,West,274,0.0,7.0,74,0.00,,,0.00,225.0,meteohub,2013-08-31 18:07:00,
2013-08-31 14:12:00,84.2,75.4,29.90,West,274,0.0,4.0,75,0.00,,,0.00,264.0,meteohub,2013-08-31 18:12:00,
2013-08-31 14:17:00,84.2,74.1,29.90,West,279,0.0,3.0,72,0.00,,,0.00,837.0,meteohub,2013-08-31 18:17:00,
2013-08-31 14:22:00,84.6,74.5,29.90,West,279,0.0,4.0,72,0.00,,,0.00,258.0,meteohub,2013-08-31 18:22:00,
2013-08-31 14:27:00,84.6,74.1,29.89,West,279,0.0,4.0,71,0.00,,,0.00,397.0,meteohub,2013-08-31 18:27:00,
2013-08-31 14:32:00,84.6,75.0,29.89,SSE,161,0.0,3.0,73,0.00,,,0.00,413.0,meteohub,2013-08-31 18:32:00,
2013-08-31 14:37:00,85.1,75.4,29.90,SSE,160,0.0,1.0,73,0.00,,,0.00,886.0,meteohub,2013-08-31 18:37:00,
2013-08-31 14:42:00,85.6,74.3,29.90,SSE,161,0.0,1.0,69,0.00,,,0.00,385.0,meteohub,2013-08-31 18:42:00,
2013-08-31 14:47:00,86.2,75.7,29.89,SSE,160,0.0,1.0,71,0.00,,,0.00,949.0,meteohub,2013-08-31 18:47:00,
2013-08-31 14:52:00,87.1,76.5,29.89,SSE,161,0.0,1.0,71,0.00,,,0.00,817.0,meteohub,2013-08-31 18:52:00,
2013-08-31 14:57:00,87.8,76.3,29.89,WNW,296,0.0,3.0,69,0.00,,,0.00,895.0,meteohub,2013-08-31 18:57:00,
2013-08-31 15:02:00,88.2,75.4,29.89,WNW,292,1.0,3.0,66,0.00,,,0.00,919.0,meteohub,2013-08-31 19:02:00,
2013-08-31 15:07:00,88.2,77.2,29.89,West,280,0.0,4.0,70,0.00,,,0.00,879.0,meteohub,2013-08-31 19:07:00,
2013-08-31 15:12:00,88.2,76.6,29.88,West,280,0.0,4.0,69,0.00,,,0.00,872.0,meteohub,2013-08-31 19:12:00,
2013-08-31 15:17:00,88.2,75.7,29.88,West,280,0.0,4.0,67,0.00,,,0.00,557.0,meteohub,2013-08-31 19:17:00,
2013-08-31 15:22:00,88.0,76.5,29.88,West,280,0.0,3.0,69,0.00,,,0.00,657.0,meteohub,2013-08-31 19:22:00,
2013-08-31 15:27:00,88.3,76.8,29.87,SSE,150,0.0,2.0,69,0.00,,,0.00,577.0,meteohub,2013-08-31 19:27:00,
2013-08-31 15:32:00,88.3,76.5,29.87,NE,37,1.0,1.0,68,0.00,,,0.00,557.0,meteohub,2013-08-31 19:32:00,
2013-08-31 15:37:00,87.6,77.0,29.87,NE,38,0.0,5.0,71,0.00,,,0.00,527.0,meteohub,2013-08-31 19:37:00,
2013-08-31 15:42:00,88.2,77.2,29.87,NE,37,0.0,5.0,70,0.00,,,0.00,714.0,meteohub,2013-08-31 19:42:00,
2013-08-31 15:47:00,88.0,77.4,29.86,NE,38,0.0,5.0,71,0.00,,,0.00,545.0,meteohub,2013-08-31 19:47:00,
2013-08-31 15:52:00,88.3,77.7,29.86,SSW,202,0.0,1.0,71,0.00,,,0.00,482.0,meteohub,2013-08-31 19:52:00,
2013-08-31 15:57:00,88.5,77.5,29.86,SE,136,0.0,4.0,70,0.00,,,0.00,527.0,meteohub,2013-08-31 19:57:00,
2013-08-31 16:02:00,88.9,78.6,29.86,SE,136,0.0,4.0,72,0.00,,,0.00,388.0,meteohub,2013-08-31 20:02:00,
2013-08-31 16:07:00,88.5,77.5,29.86,East,96,0.0,3.0,70,0.00,,,0.00,316.0,meteohub,2013-08-31 20:07:00,
2013-08-31 16:12:00,88.0,77.9,29.85,East,98,0.0,1.0,72,0.00,,,0.00,246.0,meteohub,2013-08-31 20:12:00,
2013-08-31 16:17:00,87.6,78.3,29.85,ESE,117,0.0,1.0,74,0.00,,,0.00,290.0,meteohub,2013-08-31 20:17:00,
2013-08-31 16:22:00,87.3,78.4,29.85,ESE,105,0.0,3.0,75,0.00,,,0.00,285.0,meteohub,2013-08-31 20:22:00,
2013-08-31 16:27:00,87.1,78.6,29.84,ESE,105,0.0,3.0,76,0.00,,,0.00,237.0,meteohub,2013-08-31 20:27:00,
2013-08-31 16:32:00,86.7,78.6,29.84,ESE,105,0.0,3.0,77,0.00,,,0.00,220.0,meteohub,2013-08-31 20:32:00,
2013-08-31 16:37:00,86.7,78.6,29.84,ESE,105,0.0,2.0,77,0.00,,,0.00,209.0,meteohub,2013-08-31 20:37:00,
2013-08-31 16:43:00,86.5,78.1,29.84,ESE,105,0.0,1.0,76,0.00,,,0.00,202.0,meteohub,2013-08-31 20:43:00,
2013-08-31 16:48:00,86.5,78.8,29.84,ESE,105,0.0,1.0,78,0.00,,,0.00,200.0,meteohub,2013-08-31 20:48:00,
2013-08-31 16:53:00,86.2,78.4,29.85,NE,52,0.0,3.0,78,0.00,,,0.00,202.0,meteohub,2013-08-31 20:53:00,
2013-08-31 16:58:00,85.8,79.0,29.85,NE,53,0.0,4.0,80,0.00,,,0.00,218.0,meteohub,2013-08-31 20:58:00,
2013-08-31 17:03:00,85.6,78.8,29.85,ENE,61,0.0,4.0,80,0.00,,,0.00,316.0,meteohub,2013-08-31 21:03:00,
2013-08-31 17:08:00,85.6,78.8,29.85,ENE,61,0.0,4.0,80,0.00,,,0.00,316.0,meteohub,2013-08-31 21:08:00,
2013-08-31 17:13:00,86.2,78.4,29.85,South,169,0.0,4.0,78,0.00,,,0.00,385.0,meteohub,2013-08-31 21:13:00,
2013-08-31 17:18:00,86.5,79.2,29.84,NNE,22,4.0,4.0,79,0.00,,,0.00,420.0,meteohub,2013-08-31 21:18:00,
2013-08-31 17:23:00,86.5,78.8,29.84,SE,138,0.0,7.0,78,0.00,,,0.00,446.0,meteohub,2013-08-31 21:23:00,
2013-08-31 17:28:00,86.5,79.2,29.84,NE,44,2.0,7.0,79,0.00,,,0.00,376.0,meteohub,2013-08-31 21:28:00,
2013-08-31 17:33:00,86.2,79.3,29.84,NE,46,2.0,7.0,80,0.00,,,0.00,257.0,meteohub,2013-08-31 21:33:00,
2013-08-31 17:38:00,86.4,79.9,29.85,ESE,114,0.0,5.0,81,0.00,,,0.00,322.0,meteohub,2013-08-31 21:38:00,
2013-08-31 17:43:00,86.4,79.0,29.85,ENE,59,8.0,8.0,79,0.00,,,0.00,232.0,meteohub,2013-08-31 21:43:00,
2013-08-31 17:48:00,86.0,78.8,29.86,SE,140,1.0,8.0,79,0.00,,,0.00,271.0,meteohub,2013-08-31 21:48:00,
2013-08-31 17:53:00,86.2,79.0,29.86,SSE,167,1.0,8.0,79,0.00,,,0.00,192.0,meteohub,2013-08-31 21:53:00,
2013-08-31 17:58:00,86.2,79.0,29.85,SE,136,0.0,8.0,79,0.00,,,0.00,183.0,meteohub,2013-08-31 21:58:00,
2013-08-31 18:03:00,86.2,78.4,29.85,ESE,111,0.0,5.0,78,0.00,,,0.00,178.0,meteohub,2013-08-31 22:03:00,
2013-08-31 18:08:00,86.0,78.3,29.85,SSE,158,1.0,5.0,78,0.00,,,0.00,174.0,meteohub,2013-08-31 22:08:00,
2013-08-31 18:13:00,85.8,78.6,29.85,ENE,75,0.0,5.0,79,0.00,,,0.00,169.0,meteohub,2013-08-31 22:13:00,
2013-08-31 18:18:00,85.6,78.8,29.85,East,95,1.0,5.0,80,0.00,,,0.00,160.0,meteohub,2013-08-31 22:18:00,
2013-08-31 18:23:00,85.8,79.3,29.85,SE,130,2.0,5.0,81,0.00,,,0.00,151.0,meteohub,2013-08-31 22:23:00,
2013-08-31 18:28:00,85.8,78.6,29.85,SSE,161,1.0,5.0,79,0.00,,,0.00,139.0,meteohub,2013-08-31 22:28:00,
2013-08-31 18:33:00,85.6,78.8,29.86,SE,138,1.0,4.0,80,0.00,,,0.00,132.0,meteohub,2013-08-31 22:33:00,
2013-08-31 18:38:00,85.6,78.8,29.86,SE,134,0.0,3.0,80,0.00,,,0.00,123.0,meteohub,2013-08-31 22:38:00,
2013-08-31 18:43:00,85.5,78.6,29.86,East,96,0.0,5.0,80,0.00,,,0.00,114.0,meteohub,2013-08-31 22:43:00,
2013-08-31 18:48:00,85.5,78.6,29.86,SSE,152,0.0,5.0,80,0.00,,,0.00,107.0,meteohub,2013-08-31 22:48:00,
2013-08-31 18:54:00,85.3,78.4,29.86,SSE,159,0.0,5.0,80,0.00,,,0.00,97.0,meteohub,2013-08-31 22:54:00,
2013-08-31 18:59:00,85.3,78.4,29.86,SSE,159,0.0,4.0,80,0.00,,,0.00,88.0,meteohub,2013-08-31 22:59:00,
2013-08-31 19:04:00,84.9,78.4,29.86,ENE,76,0.0,4.0,81,0.00,,,0.00,79.0,meteohub,2013-08-31 23:04:00,
2013-08-31 19:09:00,84.7,78.6,29.87,SE,133,0.0,4.0,82,0.00,,,0.00,70.0,meteohub,2013-08-31 23:09:00,
2013-08-31 19:14:00,84.6,78.1,29.87,SE,134,0.0,2.0,81,0.00,,,0.00,62.0,meteohub,2013-08-31 23:14:00,
2013-08-31 19:19:00,84.6,78.4,29.87,SE,124,0.0,2.0,82,0.00,,,0.00,49.0,meteohub,2013-08-31 23:19:00,
2013-08-31 19:24:00,84.4,78.3,29.87,ESE,123,0.0,2.0,82,0.00,,,0.00,37.0,meteohub,2013-08-31 23:24:00,
2013-08-31 19:29:00,84.2,78.4,29.87,SE,124,0.0,2.0,83,0.00,,,0.00,30.0,meteohub,2013-08-31 23:29:00,
2013-08-31 19:34:00,84.0,78.3,29.87,ESE,123,0.0,2.0,83,0.00,,,0.00,23.0,meteohub,2013-08-31 23:34:00,
2013-08-31 19:39:00,83.8,78.1,29.87,SE,124,0.0,1.0,83,0.00,,,0.00,19.0,meteohub,2013-08-31 23:39:00,
2013-08-31 19:44:00,83.5,78.1,29.87,ESE,123,0.0,1.0,84,0.00,,,0.00,16.0,meteohub,2013-08-31 23:44:00,
2013-08-31 19:49:00,83.5,78.4,29.88,SE,128,0.0,1.0,85,0.00,,,0.00,11.0,meteohub,2013-08-31 23:49:00,
2013-08-31 19:54:00,83.1,78.1,29.88,SE,128,0.0,1.0,85,0.00,,,0.00,0.0,meteohub,2013-08-31 23:54:00,
2013-08-31 19:59:00,83.1,78.1,29.88,NNW,340,0.0,1.0,85,0.00,,,0.00,0.0,meteohub,2013-08-31 23:59:00,
2013-08-31 20:04:00,82.8,76.3,29.88,South,172,0.0,2.0,81,0.00,,,0.00,0.0,meteohub,2013-09-01 00:04:00,
2013-08-31 20:09:00,82.2,75.4,29.87,West,280,0.0,5.0,80,0.00,,,0.00,0.0,meteohub,2013-09-01 00:09:00,
2013-08-31 20:14:00,81.9,75.0,29.87,SSE,150,0.0,5.0,80,0.00,,,0.00,0.0,meteohub,2013-09-01 00:14:00,
2013-08-31 20:19:00,81.5,75.0,29.88,SSE,168,1.0,5.0,81,0.00,,,0.00,0.0,meteohub,2013-09-01 00:19:00,
2013-08-31 20:24:00,81.1,74.7,29.88,SE,142,0.0,2.0,81,0.00,,,0.00,0.0,meteohub,2013-09-01 00:24:00,
2013-08-31 20:29:00,81.0,74.7,29.88,SE,141,0.0,2.0,81,0.00,,,0.00,0.0,meteohub,2013-09-01 00:29:00,
2013-08-31 20:34:00,80.6,74.3,29.88,SW,230,0.0,2.0,81,0.00,,,0.00,0.0,meteohub,2013-09-01 00:34:00,
2013-08-31 20:39:00,80.2,73.9,29.88,SW,230,0.0,1.0,81,0.00,,,0.00,0.0,meteohub,2013-09-01 00:39:00,
2013-08-31 20:44:00,80.1,74.1,29.88,SW,230,0.0,1.0,82,0.00,,,0.00,0.0,meteohub,2013-09-01 00:44:00,
2013-08-31 20:49:00,79.9,73.9,29.88,SW,230,0.0,1.0,82,0.00,,,0.00,0.0,meteohub,2013-09-01 00:49:00,
2013-08-31 20:54:00,79.5,73.6,29.89,SW,230,0.0,0.0,82,0.00,,,0.00,0.0,meteohub,2013-09-01 00:54:00,
2013-08-31 20:59:00,79.3,73.4,29.89,SW,230,0.0,0.0,82,0.00,,,0.00,0.0,meteohub,2013-09-01 00:59:00,
2013-08-31 21:04:00,79.2,73.9,29.89,SW,230,0.0,0.0,84,0.00,,,0.00,0.0,meteohub,2013-09-01 01:04:00,
2013-08-31 21:09:00,79.0,73.4,29.89,SW,230,0.0,0.0,83,0.00,,,0.00,0.0,meteohub,2013-09-01 01:09:00,
2013-08-31 21:14:00,78.6,73.4,29.89,SW,230,0.0,0.0,84,0.00,,,0.00,0.0,meteohub,2013-09-01 01:14:00,
2013-08-31 21:19:00,78.4,73.9,29.89,SW,230,0.0,0.0,86,0.00,,,0.00,0.0,meteohub,2013-09-01 01:19:00,
2013-08-31 21:24:00,78.1,73.6,29.90,SW,230,0.0,0.0,86,0.00,,,0.00,0.0,meteohub,2013-09-01 01:24:00,
2013-08-31 21:29:00,77.7,73.2,29.89,SW,230,0.0,0.0,86,0.00,,,0.00,0.0,meteohub,2013-09-01 01:29:00,
2013-08-31 21:34:00,77.4,73.2,29.89,SW,230,0.0,0.0,87,0.00,,,0.00,0.0,meteohub,2013-09-01 01:34:00,
2013-08-31 21:39:00,77.2,73.4,29.89,SW,230,0.0,0.0,88,0.00,,,0.00,0.0,meteohub,2013-09-01 01:39:00,
2013-08-31 21:44:00,76.8,73.4,29.89,SW,230,0.0,0.0,89,0.00,,,0.00,0.0,meteohub,2013-09-01 01:44:00,
2013-08-31 21:50:00,76.6,73.2,29.89,SW,230,0.0,0.0,89,0.00,,,0.00,0.0,meteohub,2013-09-01 01:50:00,
2013-08-31 21:55:00,76.5,73.2,29.90,SW,230,0.0,0.0,90,0.00,,,0.00,0.0,meteohub,2013-09-01 01:55:00,
2013-08-31 22:00:00,76.3,73.0,29.90,SW,230,0.0,0.0,90,0.00,,,0.00,0.0,meteohub,2013-09-01 02:00:00,
2013-08-31 22:05:00,76.3,73.0,29.90,SW,230,0.0,0.0,90,0.00,,,0.00,0.0,meteohub,2013-09-01 02:05:00,
2013-08-31 22:10:00,76.3,73.8,29.90,SW,230,0.0,0.0,92,0.00,,,0.00,0.0,meteohub,2013-09-01 02:10:00,
2013-08-31 22:15:00,75.9,73.4,29.90,SW,230,0.0,0.0,92,0.00,,,0.00,0.0,meteohub,2013-09-01 02:15:00,
2013-08-31 22:20:00,75.7,73.2,29.91,SW,230,0.0,0.0,92,0.00,,,0.00,0.0,meteohub,2013-09-01 02:20:00,
2013-08-31 22:25:00,75.6,73.0,29.91,SW,230,0.0,0.0,92,0.00,,,0.00,0.0,meteohub,2013-09-01 02:25:00,
2013-08-31 22:30:00,75.4,72.9,29.90,SW,230,0.0,0.0,92,0.00,,,0.00,0.0,meteohub,2013-09-01 02:30:00,
2013-08-31 22:35:00,75.0,72.5,29.90,SW,230,0.0,0.0,92,0.00,,,0.00,0.0,meteohub,2013-09-01 02:35:00,
2013-08-31 22:40:00,74.8,72.7,29.90,SW,230,0.0,0.0,93,0.00,,,0.00,0.0,meteohub,2013-09-01 02:40:00,
2013-08-31 22:45:00,74.8,72.3,29.90,SW,230,0.0,0.0,92,0.00,,,0.00,0.0,meteohub,2013-09-01 02:45:00,
2013-08-31 22:50:00,74.7,72.1,29.90,SW,230,0.0,0.0,92,0.00,,,0.00,0.0,meteohub,2013-09-01 02:50:00,
2013-08-31 22:55:00,74.5,72.3,29.90,SW,230,0.0,0.0,93,0.00,,,0.00,0.0,meteohub,2013-09-01 02:55:00,
2013-08-31 23:00:00,74.5,72.3,29.90,SW,230,0.0,0.0,93,0.00,,,0.00,0.0,meteohub,2013-09-01 03:00:00,
2013-08-31 23:05:00,74.5,72.3,29.90,SW,230,0.0,0.0,93,0.00,,,0.00,0.0,meteohub,2013-09-01 03:05:00,
2013-08-31 23:10:00,74.5,72.7,29.90,SW,230,0.0,0.0,94,0.00,,,0.00,0.0,meteohub,2013-09-01 03:10:00,
2013-08-31 23:15:00,74.8,73.0,29.90,SW,230,0.0,0.0,94,0.00,,,0.00,0.0,meteohub,2013-09-01 03:15:00,
2013-08-31 23:20:00,74.7,72.9,29.90,SW,230,0.0,0.0,94,0.00,,,0.00,0.0,meteohub,2013-09-01 03:20:00,
2013-08-31 23:25:00,74.7,72.9,29.90,SW,230,0.0,0.0,94,0.00,,,0.00,0.0,meteohub,2013-09-01 03:25:00,
2013-08-31 23:30:00,74.5,72.7,29.90,SW,230,0.0,0.0,94,0.00,,,0.00,0.0,meteohub,2013-09-01 03:30:00,
2013-08-31 23:35:00,74.3,72.5,29.90,SW,230,0.0,0.0,94,0.00,,,0.00,0.0,meteohub,2013-09-01 03:35:00,
2013-08-31 23:40:00,74.1,72.3,29.90,SW,230,0.0,0.0,94,0.00,,,0.00,0.0,meteohub,2013-09-01 03:40:00,
2013-08-31 23:45:00,74.1,72.3,29.90,SW,230,0.0,0.0,94,0.00,,,0.00,0.0,meteohub,2013-09-01 03:45:00,
2013-08-31 23:50:00,74.1,72.3,29.90,SW,230,0.0,0.0,94,0.00,,,0.00,0.0,meteohub,2013-09-01 03:50:00,
2013-08-31 23:55:00,73.9,72.1,29.90,SW,230,0.0,0.0,94,0.00,,,0.00,0.0,meteohub,2013-09-01 03:55:00,